Time,TemperatureF,DewpointF,PressureIn,WindDirection,WindDirectionDegrees,WindSpeedMPH,WindSpeedGustMPH,Humidity,HourlyPrecipIn,Conditions,Clouds,dailyrainin,SolarRadiationWatts/m^2,SoftwareType,DateUTC
2013-04-07 00:04:00,47.6,24.5,30.02,South,190,0.0,3.0,40,0.00,,,0.00,0,LWC V2.00 B727,2013-04-07 06:04:00,
2013-04-07 00:09:00,47.7,24.6,30.02,SSW,192,2.0,3.0,40,0.00,,,0.00,0,LWC V2.00 B727,2013-04-07 06:09:00,
2013-04-07 00:14:00,47.8,24.7,30.02,SSW,206,3.0,3.0,40,0.00,,,0.00,0,LWC V2.00 B727,2013-04-07 06:14:00,
2013-04-07 00:19:00,48.1,24.9,30.02,SW,214,1.0,3.0,40,0.00,,,0.00,0,LWC V2.00 B727,2013-04-07 06:19:00,
2013-04-07 00:24:00,48.2,24.4,30.02,WSW,238,4.0,6.0,39,0.00,,,0.00,0,LWC V2.00 B727,2013-04-07 06:24:00,
2013-04-07 00:29:00,48.3,24.5,30.03,WSW,244,4.0,6.0,39,0.00,,,0.00,0,LWC V2.00 B727,2013-04-07 06:29:00,
2013-04-07 00:34:00,48.5,24.1,30.03,WSW,242,2.0,7.0,38,0.00,,,0.00,0,LWC V2.00 B727,2013-04-07 06:34:00,
2013-04-07 00:39:00,48.6,24.2,30.03,WSW,241,4.0,4.0,38,0.00,,,0.00,0,LWC V2.00 B727,2013-04-07 06:39:00,
2013-04-07 00:44:00,48.7,24.2,30.03,SW,233,4.0,4.0,38,0.00,,,0.00,0,LWC V2.00 B727,2013-04-07 06:44:00,
2013-04-07 00:49:00,48.7,24.2,30.03,WSW,250,1.0,5.0,38,0.00,,,0.00,0,LWC V2.00 B727,2013-04-07 06:49:00,
2013-04-07 00:54:00,48.7,24.2,30.02,WSW,247,2.0,4.0,38,0.00,,,0.00,0,LWC V2.00 B727,2013-04-07 06:54:00,
2013-04-07 00:59:00,48.7,24.2,30.02,WSW,247,0.0,0.0,38,0.00,,,0.00,0,LWC V2.00 B727,2013-04-07 06:59:00,
2013-04-07 01:04:00,48.7,24.9,30.02,WSW,247,0.0,1.0,39,0.00,,,0.00,0,LWC V2.00 B727,2013-04-07 07:04:00,
2013-04-07 01:09:00,48.6,25.4,30.01,WSW,247,0.0,0.0,40,0.00,,,0.00,0,LWC V2.00 B727,2013-04-07 07:09:00,
2013-04-07 01:14:00,48.4,25.2,30.01,WSW,247,0.0,0.0,40,0.00,,,0.00,0,LWC V2.00 B727,2013-04-07 07:14:00,
2013-04-07 01:19:00,48.1,24.3,30.01,WSW,246,0.0,2.0,39,0.00,,,0.00,0,LWC V2.00 B727,2013-04-07 07:19:00,
2013-04-07 01:24:00,47.7,24.6,30.01,WSW,246,3.0,3.0,40,0.00,,,0.00,0,LWC V2.00 B727,2013-04-07 07:24:00,
2013-04-07 01:29:00,47.5,24.4,30.01,WSW,246,0.0,0.0,40,0.00,,,0.00,0,LWC V2.00 B727,2013-04-07 07:29:00,
2013-04-07 01:34:00,47.4,24.3,30.01,WSW,246,0.0,3.0,40,0.00,,,0.00,0,LWC V2.00 B727,2013-04-07 07:34:00,
2013-04-07 01:39:00,47.3,24.2,30.00,WSW,246,0.0,3.0,40,0.00,,,0.00,0,LWC V2.00 B727,2013-04-07 07:39:00,
2013-04-07 01:44:00,47.2,24.1,30.00,WSW,246,1.0,1.0,40,0.00,,,0.00,0,LWC V2.00 B727,2013-04-07 07:44:00,
2013-04-07 01:49:00,47.0,23.9,30.00,WSW,246,0.0,0.0,40,0.00,,,0.00,0,LWC V2.00 B727,2013-04-07 07:49:00,
2013-04-07 01:54:00,46.7,23.7,30.00,WSW,246,0.0,0.0,40,0.00,,,0.00,0,LWC V2.00 B727,2013-04-07 07:54:00,
2013-04-07 01:59:00,46.4,24.0,29.99,WSW,246,0.0,0.0,41,0.00,,,0.00,0,LWC V2.00 B727,2013-04-07 07:59:00,
2013-04-07 02:04:00,45.9,23.5,29.99,WSW,246,1.0,1.0,41,0.00,,,0.00,0,LWC V2.00 B727,2013-04-07 08:04:00,
2013-04-07 02:09:00,45.3,23.6,29.99,WSW,246,0.0,1.0,42,0.00,,,0.00,0,LWC V2.00 B727,2013-04-07 08:09:00,
2013-04-07 02:14:00,44.7,23.6,30.00,WSW,246,0.0,2.0,43,0.00,,,0.00,0,LWC V2.00 B727,2013-04-07 08:14:00,
2013-04-07 02:19:00,44.4,23.3,29.99,WSW,246,0.0,0.0,43,0.00,,,0.00,0,LWC V2.00 B727,2013-04-07 08:19:00,
2013-04-07 02:24:00,44.0,23.5,29.99,WSW,246,0.0,1.0,44,0.00,,,0.00,0,LWC V2.00 B727,2013-04-07 08:24:00,
2013-04-07 02:29:00,43.4,24.0,29.99,WSW,246,0.0,1.0,46,0.00,,,0.00,0,LWC V2.00 B727,2013-04-07 08:29:00,
2013-04-07 02:34:00,43.1,23.7,29.99,WSW,246,0.0,0.0,46,0.00,,,0.00,0,LWC V2.00 B727,2013-04-07 08:34:00,
2013-04-07 02:39:00,42.7,23.9,29.99,WSW,246,0.0,0.0,47,0.00,,,0.00,0,LWC V2.00 B727,2013-04-07 08:39:00,
2013-04-07 02:44:00,42.2,24.4,29.99,WSW,246,2.0,3.0,49,0.00,,,0.00,0,LWC V2.00 B727,2013-04-07 08:44:00,
2013-04-07 02:49:00,41.7,24.4,29.99,SSE,167,1.0,3.0,50,0.00,,,0.00,0,LWC V2.00 B727,2013-04-07 08:49:00,
2013-04-07 02:54:00,41.3,24.6,29.98,SSE,167,0.0,1.0,51,0.00,,,0.00,0,LWC V2.00 B727,2013-04-07 08:54:00,
2013-04-07 02:59:00,41.0,24.3,29.98,SSE,165,0.0,2.0,51,0.00,,,0.00,0,LWC V2.00 B727,2013-04-07 08:59:00,
2013-04-07 03:04:00,40.6,24.4,29.98,SSE,165,0.0,1.0,52,0.00,,,0.00,0,LWC V2.00 B727,2013-04-07 09:04:00,
2013-04-07 03:09:00,40.1,24.4,29.98,SSE,165,1.0,1.0,53,0.00,,,0.00,0,LWC V2.00 B727,2013-04-07 09:09:00,
2013-04-07 03:14:00,39.7,24.0,29.98,SSE,165,0.0,2.0,53,0.00,,,0.00,0,LWC V2.00 B727,2013-04-07 09:14:00,
2013-04-07 03:19:00,39.4,23.7,29.98,SSE,165,1.0,1.0,53,0.00,,,0.00,0,LWC V2.00 B727,2013-04-07 09:19:00,
2013-04-07 03:24:00,39.2,24.0,29.99,SSE,165,0.0,0.0,54,0.00,,,0.00,0,LWC V2.00 B727,2013-04-07 09:24:00,
2013-04-07 03:29:00,39.0,23.8,29.99,SSE,164,0.0,0.0,54,0.00,,,0.00,0,LWC V2.00 B727,2013-04-07 09:29:00,
2013-04-07 03:34:00,38.7,23.9,29.99,SSE,165,0.0,1.0,55,0.00,,,0.00,0,LWC V2.00 B727,2013-04-07 09:34:00,
2013-04-07 03:39:00,38.5,23.8,29.98,SSE,165,0.0,0.0,55,0.00,,,0.00,0,LWC V2.00 B727,2013-04-07 09:39:00,
2013-04-07 03:44:00,38.4,24.1,29.98,SSE,165,1.0,1.0,56,0.00,,,0.00,0,LWC V2.00 B727,2013-04-07 09:44:00,
2013-04-07 03:49:00,38.4,24.5,29.98,SSE,164,0.0,0.0,57,0.00,,,0.00,0,LWC V2.00 B727,2013-04-07 09:49:00,
2013-04-07 03:54:00,38.4,24.5,29.98,SSE,165,0.0,1.0,57,0.00,,,0.00,0,LWC V2.00 B727,2013-04-07 09:54:00,
2013-04-07 03:59:00,38.5,24.6,29.98,SSE,164,0.0,0.0,57,0.00,,,0.00,0,LWC V2.00 B727,2013-04-07 09:59:00,
2013-04-07 04:04:00,38.6,25.1,29.98,SSE,164,0.0,0.0,58,0.00,,,0.00,0,LWC V2.00 B727,2013-04-07 10:04:00,
2013-04-07 04:09:00,39.0,25.1,29.98,SSE,164,0.0,2.0,57,0.00,,,0.00,0,LWC V2.00 B727,2013-04-07 10:09:00,
2013-04-07 04:14:00,39.3,25.4,29.98,SSE,164,0.0,1.0,57,0.00,,,0.00,0,LWC V2.00 B727,2013-04-07 10:14:00,
2013-04-07 04:19:00,39.6,25.2,29.98,SSE,164,0.0,0.0,56,0.00,,,0.00,0,LWC V2.00 B727,2013-04-07 10:19:00,
2013-04-07 04:24:00,39.8,25.8,29.98,SSE,164,0.0,1.0,57,0.00,,,0.00,0,LWC V2.00 B727,2013-04-07 10:24:00,
2013-04-07 04:29:00,40.0,26.0,29.98,SSE,164,0.0,1.0,57,0.00,,,0.00,0,LWC V2.00 B727,2013-04-07 10:29:00,
2013-04-07 04:34:00,40.3,25.9,29.98,SSE,164,0.0,0.0,56,0.00,,,0.00,0,LWC V2.00 B727,2013-04-07 10:34:00,
2013-04-07 04:39:00,40.5,25.6,29.98,SSE,164,0.0,0.0,55,0.00,,,0.00,0,LWC V2.00 B727,2013-04-07 10:39:00,
2013-04-07 04:44:00,40.5,25.6,29.98,SSE,164,0.0,1.0,55,0.00,,,0.00,0,LWC V2.00 B727,2013-04-07 10:44:00,
2013-04-07 04:49:00,40.4,26.0,29.98,SSE,163,0.0,0.0,56,0.00,,,0.00,0,LWC V2.00 B727,2013-04-07 10:49:00,
2013-04-07 04:54:00,40.2,25.8,29.98,SSE,163,0.0,0.0,56,0.00,,,0.00,0,LWC V2.00 B727,2013-04-07 10:54:00,
2013-04-07 04:59:00,40.0,25.2,29.97,SSE,163,0.0,0.0,55,0.00,,,0.00,0,LWC V2.00 B727,2013-04-07 10:59:00,
2013-04-07 05:04:00,39.8,25.0,29.98,SSE,163,0.0,0.0,55,0.00,,,0.00,0,LWC V2.00 B727,2013-04-07 11:04:00,
2013-04-07 05:09:00,39.5,24.7,29.98,SSE,163,0.0,0.0,55,0.00,,,0.00,0,LWC V2.00 B727,2013-04-07 11:09:00,
2013-04-07 05:14:00,39.0,24.7,29.98,SSE,163,1.0,2.0,56,0.00,,,0.00,0,LWC V2.00 B727,2013-04-07 11:14:00,
2013-04-07 05:19:00,38.6,24.3,29.98,SSE,163,0.0,0.0,56,0.00,,,0.00,0,LWC V2.00 B727,2013-04-07 11:19:00,
2013-04-07 05:24:00,38.1,23.8,29.98,SSE,163,1.0,2.0,56,0.00,,,0.00,0,LWC V2.00 B727,2013-04-07 11:24:00,
2013-04-07 05:29:00,37.7,23.9,29.97,SSE,163,1.0,2.0,57,0.00,,,0.00,0,LWC V2.00 B727,2013-04-07 11:29:00,
2013-04-07 05:34:00,37.3,23.5,29.98,SSE,163,1.0,2.0,57,0.00,,,0.00,0,LWC V2.00 B727,2013-04-07 11:34:00,
2013-04-07 05:39:00,37.1,23.7,29.98,SSE,163,2.0,3.0,58,0.00,,,0.00,0,LWC V2.00 B727,2013-04-07 11:39:00,
2013-04-07 05:44:00,37.0,23.6,29.98,SSE,163,0.0,3.0,58,0.00,,,0.00,0,LWC V2.00 B727,2013-04-07 11:44:00,
2013-04-07 05:49:00,36.9,23.5,29.98,SSE,163,0.0,1.0,58,0.00,,,0.00,0,LWC V2.00 B727,2013-04-07 11:49:00,
2013-04-07 05:54:00,36.7,23.3,29.98,SSE,163,1.0,2.0,58,0.00,,,0.00,0,LWC V2.00 B727,2013-04-07 11:54:00,
2013-04-07 05:59:00,36.6,23.2,29.98,SSE,162,1.0,3.0,58,0.00,,,0.00,0,LWC V2.00 B727,2013-04-07 11:59:00,
2013-04-07 06:04:00,36.5,23.1,29.98,SSE,162,0.0,1.0,58,0.00,,,0.00,0,LWC V2.00 B727,2013-04-07 12:04:00,
2013-04-07 06:09:00,36.3,23.0,29.98,SSE,161,0.0,2.0,58,0.00,,,0.00,0,LWC V2.00 B727,2013-04-07 12:09:00,
2013-04-07 06:14:00,36.2,22.9,29.98,SSE,162,1.0,3.0,58,0.00,,,0.00,0,LWC V2.00 B727,2013-04-07 12:14:00,
2013-04-07 06:19:00,36.0,22.7,29.98,SSE,162,1.0,2.0,58,0.00,,,0.00,0,LWC V2.00 B727,2013-04-07 12:19:00,
2013-04-07 06:24:00,36.0,23.1,29.98,SSE,160,2.0,2.0,59,0.00,,,0.00,0,LWC V2.00 B727,2013-04-07 12:24:00,
2013-04-07 06:29:00,35.9,23.0,29.98,SSE,163,1.0,2.0,59,0.00,,,0.00,0,LWC V2.00 B727,2013-04-07 12:29:00,
2013-04-07 06:34:00,35.8,22.9,29.98,SSE,163,0.0,1.0,59,0.00,,,0.00,0,LWC V2.00 B727,2013-04-07 12:34:00,
2013-04-07 06:39:00,35.8,22.5,29.98,SSE,163,0.0,0.0,58,0.00,,,0.00,0,LWC V2.00 B727,2013-04-07 12:39:00,
2013-04-07 06:44:00,35.7,22.8,29.98,SSE,163,0.0,1.0,59,0.00,,,0.00,9,LWC V2.00 B727,2013-04-07 12:44:00,
2013-04-07 06:49:00,35.6,23.1,29.98,SSE,157,1.0,3.0,60,0.00,,,0.00,14,LWC V2.00 B727,2013-04-07 12:49:00,
2013-04-07 06:54:00,35.6,23.1,29.98,SSE,159,1.0,3.0,60,0.00,,,0.00,16,LWC V2.00 B727,2013-04-07 12:54:00,
2013-04-07 06:59:00,35.7,23.2,29.98,SSE,159,0.0,1.0,60,0.00,,,0.00,18,LWC V2.00 B727,2013-04-07 12:59:00,
2013-04-07 07:04:00,35.8,23.3,29.98,SSE,159,2.0,3.0,60,0.00,,,0.00,21,LWC V2.00 B727,2013-04-07 13:04:00,
2013-04-07 07:09:00,36.0,23.5,29.98,SSE,159,1.0,2.0,60,0.00,,,0.00,25,LWC V2.00 B727,2013-04-07 13:09:00,
2013-04-07 07:14:00,36.3,23.8,29.98,SSE,159,0.0,1.0,60,0.00,,,0.00,28,LWC V2.00 B727,2013-04-07 13:14:00,
2013-04-07 07:19:00,36.7,24.1,29.98,SSE,159,0.0,1.0,60,0.00,,,0.00,40,LWC V2.00 B727,2013-04-07 13:19:00,
2013-04-07 07:24:00,37.6,24.2,29.98,SSE,161,1.0,3.0,58,0.00,,,0.00,83,LWC V2.00 B727,2013-04-07 13:24:00,
2013-04-07 07:29:00,38.3,24.8,29.99,SSE,161,0.0,1.0,58,0.00,,,0.00,102,LWC V2.00 B727,2013-04-07 13:29:00,
2013-04-07 07:34:00,38.7,25.6,29.99,SSE,160,0.0,0.0,59,0.00,,,0.00,123,LWC V2.00 B727,2013-04-07 13:34:00,
2013-04-07 07:39:00,39.2,26.9,29.99,SSE,161,0.0,1.0,61,0.00,,,0.00,158,LWC V2.00 B727,2013-04-07 13:39:00,
2013-04-07 07:44:00,39.8,27.9,29.98,SSE,160,0.0,1.0,62,0.00,,,0.00,179,LWC V2.00 B727,2013-04-07 13:44:00,
2013-04-07 07:49:00,40.5,26.9,29.98,SSE,160,0.0,1.0,58,0.00,,,0.00,183,LWC V2.00 B727,2013-04-07 13:49:00,
2013-04-07 07:54:00,41.2,28.0,29.98,SSE,160,0.0,2.0,59,0.00,,,0.00,206,LWC V2.00 B727,2013-04-07 13:54:00,
2013-04-07 07:59:00,42.1,28.0,29.98,SSE,160,0.0,1.0,57,0.00,,,0.00,255,LWC V2.00 B727,2013-04-07 13:59:00,
2013-04-07 08:04:00,42.9,27.9,29.98,SSE,160,0.0,0.0,55,0.00,,,0.00,211,LWC V2.00 B727,2013-04-07 14:04:00,
2013-04-07 08:09:00,43.7,27.7,29.98,SSE,160,0.0,2.0,53,0.00,,,0.00,246,LWC V2.00 B727,2013-04-07 14:09:00,
2013-04-07 08:14:00,44.6,28.1,29.98,SSE,160,2.0,2.0,52,0.00,,,0.00,287,LWC V2.00 B727,2013-04-07 14:14:00,
2013-04-07 08:19:00,45.5,27.5,29.99,NNE,28,3.0,4.0,49,0.00,,,0.00,313,LWC V2.00 B727,2013-04-07 14:19:00,
2013-04-07 08:24:00,46.2,28.1,29.99,North,355,2.0,3.0,49,0.00,,,0.00,371,LWC V2.00 B727,2013-04-07 14:24:00,
2013-04-07 08:29:00,47.0,28.8,29.99,North,355,0.0,3.0,49,0.00,,,0.00,339,LWC V2.00 B727,2013-04-07 14:29:00,
2013-04-07 08:34:00,47.7,27.9,29.99,North,355,1.0,3.0,46,0.00,,,0.00,330,LWC V2.00 B727,2013-04-07 14:34:00,
2013-04-07 08:39:00,48.2,29.4,29.99,North,355,3.0,4.0,48,0.00,,,0.00,367,LWC V2.00 B727,2013-04-07 14:39:00,
2013-04-07 08:44:00,48.7,27.8,29.99,North,355,4.0,4.0,44,0.00,,,0.00,410,LWC V2.00 B727,2013-04-07 14:44:00,
2013-04-07 08:49:00,49.4,27.9,29.99,North,0,2.0,4.0,43,0.00,,,0.00,429,LWC V2.00 B727,2013-04-07 14:49:00,
2013-04-07 08:54:00,50.0,28.4,29.99,West,279,3.0,3.0,43,0.00,,,0.00,403,LWC V2.00 B727,2013-04-07 14:54:00,
2013-04-07 08:59:00,50.5,28.8,29.99,West,281,1.0,3.0,43,0.00,,,0.00,459,LWC V2.00 B727,2013-04-07 14:59:00,
2013-04-07 09:04:00,51.2,28.9,29.99,WSW,242,5.0,5.0,42,0.00,,,0.00,478,LWC V2.00 B727,2013-04-07 15:04:00,
2013-04-07 09:09:00,52.0,28.4,29.99,SW,227,3.0,4.0,40,0.00,,,0.00,475,LWC V2.00 B727,2013-04-07 15:09:00,
2013-04-07 09:14:00,52.6,27.1,29.99,WSW,241,3.0,9.0,37,0.00,,,0.00,492,LWC V2.00 B727,2013-04-07 15:14:00,
2013-04-07 09:19:00,53.0,28.1,29.99,WSW,254,0.0,6.0,38,0.00,,,0.00,499,LWC V2.00 B727,2013-04-07 15:19:00,
2013-04-07 09:24:00,53.5,27.9,29.99,West,259,4.0,7.0,37,0.00,,,0.00,547,LWC V2.00 B727,2013-04-07 15:24:00,
2013-04-07 09:29:00,54.0,28.3,29.99,WSW,246,2.0,6.0,37,0.00,,,0.00,570,LWC V2.00 B727,2013-04-07 15:29:00,
2013-04-07 09:34:00,54.2,27.8,29.99,SW,230,7.0,8.0,36,0.00,,,0.00,596,LWC V2.00 B727,2013-04-07 15:34:00,
2013-04-07 09:39:00,54.4,27.3,29.99,WSW,238,2.0,8.0,35,0.00,,,0.00,578,LWC V2.00 B727,2013-04-07 15:39:00,
2013-04-07 09:44:00,54.6,28.2,29.99,WSW,238,3.0,8.0,36,0.00,,,0.00,629,LWC V2.00 B727,2013-04-07 15:44:00,
2013-04-07 09:49:00,55.0,28.5,29.99,WSW,241,4.0,13.0,36,0.00,,,0.00,666,LWC V2.00 B727,2013-04-07 15:49:00,
2013-04-07 09:54:00,55.5,28.3,29.99,SW,235,8.0,8.0,35,0.00,,,0.00,643,LWC V2.00 B727,2013-04-07 15:54:00,
2013-04-07 09:59:00,55.5,26.9,29.99,North,11,4.0,7.0,33,0.00,,,0.00,640,LWC V2.00 B727,2013-04-07 15:59:00,
2013-04-07 10:04:00,55.1,27.2,29.99,NW,315,14.0,16.0,34,0.00,,,0.00,693,LWC V2.00 B727,2013-04-07 16:04:00,
2013-04-07 10:09:00,54.9,27.8,29.99,North,355,6.0,7.0,35,0.00,,,0.00,700,LWC V2.00 B727,2013-04-07 16:09:00,
2013-04-07 10:14:00,55.2,28.7,29.99,WNW,288,0.0,4.0,36,0.00,,,0.00,714,LWC V2.00 B727,2013-04-07 16:14:00,
2013-04-07 10:19:00,55.6,28.4,29.99,NNE,18,2.0,12.0,35,0.00,,,0.00,729,LWC V2.00 B727,2013-04-07 16:19:00,
2013-04-07 10:24:00,55.7,27.8,29.99,NNW,334,9.0,13.0,34,0.00,,,0.00,740,LWC V2.00 B727,2013-04-07 16:24:00,
2013-04-07 10:29:00,55.7,27.0,29.99,SW,214,9.0,9.0,33,0.00,,,0.00,756,LWC V2.00 B727,2013-04-07 16:29:00,
2013-04-07 10:34:00,56.1,27.4,29.99,WSW,244,9.0,12.0,33,0.00,,,0.00,775,LWC V2.00 B727,2013-04-07 16:34:00,
2013-04-07 10:39:00,56.2,27.5,29.99,South,176,1.0,7.0,33,0.00,,,0.00,788,LWC V2.00 B727,2013-04-07 16:39:00,
2013-04-07 10:44:00,56.4,26.9,29.98,SW,222,3.0,10.0,32,0.00,,,0.00,802,LWC V2.00 B727,2013-04-07 16:44:00,
2013-04-07 10:49:00,56.7,27.2,29.98,SW,215,5.0,7.0,32,0.00,,,0.00,812,LWC V2.00 B727,2013-04-07 16:49:00,
2013-04-07 10:54:00,56.9,28.1,29.98,SW,219,4.0,10.0,33,0.00,,,0.00,826,LWC V2.00 B727,2013-04-07 16:54:00,
2013-04-07 10:59:00,57.2,26.1,29.98,WSW,238,6.0,13.0,30,0.00,,,0.00,840,LWC V2.00 B727,2013-04-07 16:59:00,
2013-04-07 11:04:00,57.4,26.2,29.98,North,5,6.0,11.0,30,0.00,,,0.00,849,LWC V2.00 B727,2013-04-07 17:04:00,
2013-04-07 11:09:00,57.3,26.9,29.98,NNE,17,4.0,10.0,31,0.00,,,0.00,856,LWC V2.00 B727,2013-04-07 17:09:00,
2013-04-07 11:14:00,57.3,26.1,29.98,West,279,2.0,10.0,30,0.00,,,0.00,867,LWC V2.00 B727,2013-04-07 17:14:00,
2013-04-07 11:19:00,57.8,27.4,29.98,WSW,252,2.0,8.0,31,0.00,,,0.00,882,LWC V2.00 B727,2013-04-07 17:19:00,
2013-04-07 11:24:00,58.5,26.4,29.98,SW,214,4.0,12.0,29,0.00,,,0.00,896,LWC V2.00 B727,2013-04-07 17:24:00,
2013-04-07 11:29:00,58.4,27.1,29.98,WSW,248,11.0,13.0,30,0.00,,,0.00,902,LWC V2.00 B727,2013-04-07 17:29:00,
2013-04-07 11:34:00,58.5,26.4,29.98,SSW,192,3.0,12.0,29,0.00,,,0.00,916,LWC V2.00 B727,2013-04-07 17:34:00,
2013-04-07 11:39:00,59.0,26.8,29.98,SSW,211,7.0,11.0,29,0.00,,,0.00,919,LWC V2.00 B727,2013-04-07 17:39:00,
2013-04-07 11:44:00,59.0,25.9,29.97,West,269,6.0,14.0,28,0.00,,,0.00,928,LWC V2.00 B727,2013-04-07 17:44:00,
2013-04-07 11:49:00,59.2,26.1,29.97,SW,232,6.0,10.0,28,0.00,,,0.00,937,LWC V2.00 B727,2013-04-07 17:49:00,
2013-04-07 11:54:00,59.4,26.3,29.96,South,183,5.0,10.0,28,0.00,,,0.00,944,LWC V2.00 B727,2013-04-07 17:54:00,
2013-04-07 11:59:00,59.5,26.4,29.96,NW,318,5.0,13.0,28,0.00,,,0.00,953,LWC V2.00 B727,2013-04-07 17:59:00,
2013-04-07 12:04:00,59.5,24.6,29.96,SSW,196,7.0,12.0,26,0.00,,,0.00,956,LWC V2.00 B727,2013-04-07 18:04:00,
2013-04-07 12:09:00,59.6,24.7,29.96,WSW,251,2.0,16.0,26,0.00,,,0.00,963,LWC V2.00 B727,2013-04-07 18:09:00,
2013-04-07 12:14:00,59.6,25.6,29.95,SW,219,3.0,8.0,27,0.00,,,0.00,965,LWC V2.00 B727,2013-04-07 18:14:00,
2013-04-07 12:19:00,60.1,25.1,29.96,WSW,248,4.0,13.0,26,0.00,,,0.00,974,LWC V2.00 B727,2013-04-07 18:19:00,
2013-04-07 12:24:00,60.5,25.4,29.95,SW,219,8.0,14.0,26,0.00,,,0.00,981,LWC V2.00 B727,2013-04-07 18:24:00,
2013-04-07 12:29:00,60.9,24.8,29.95,SW,222,11.0,16.0,25,0.00,,,0.00,993,LWC V2.00 B727,2013-04-07 18:29:00,
2013-04-07 12:34:00,60.7,24.7,29.95,WSW,241,4.0,18.0,25,0.00,,,0.00,1055,LWC V2.00 B727,2013-04-07 18:34:00,
2013-04-07 12:39:00,60.2,27.0,29.95,WSW,244,3.0,11.0,28,0.00,,,0.00,997,LWC V2.00 B727,2013-04-07 18:39:00,
2013-04-07 12:44:00,60.6,25.5,29.95,NNE,32,6.0,11.0,26,0.00,,,0.00,993,LWC V2.00 B727,2013-04-07 18:44:00,
2013-04-07 12:49:00,60.5,25.4,29.94,North,355,10.0,10.0,26,0.00,,,0.00,998,LWC V2.00 B727,2013-04-07 18:49:00,
2013-04-07 12:54:00,60.4,25.4,29.94,SW,226,8.0,12.0,26,0.00,,,0.00,1005,LWC V2.00 B727,2013-04-07 18:54:00,
2013-04-07 12:59:00,60.9,25.8,29.94,SSW,213,1.0,14.0,26,0.00,,,0.00,1028,LWC V2.00 B727,2013-04-07 18:59:00,
2013-04-07 13:04:00,61.4,28.0,29.93,NW,318,3.0,8.0,28,0.00,,,0.00,1079,LWC V2.00 B727,2013-04-07 19:04:00,
2013-04-07 13:09:00,62.2,26.9,29.93,NNE,27,5.0,12.0,26,0.00,,,0.00,937,LWC V2.00 B727,2013-04-07 19:09:00,
2013-04-07 13:14:00,62.2,26.0,29.93,SW,232,8.0,13.0,25,0.00,,,0.00,1041,LWC V2.00 B727,2013-04-07 19:14:00,
2013-04-07 13:19:00,61.6,24.5,29.93,North,5,4.0,14.0,24,0.00,,,0.00,316,LWC V2.00 B727,2013-04-07 19:19:00,
2013-04-07 13:24:00,61.4,25.3,29.93,SSW,196,7.0,16.0,25,0.00,,,0.00,1025,LWC V2.00 B727,2013-04-07 19:24:00,
2013-04-07 13:29:00,61.7,24.5,29.93,SSW,200,6.0,18.0,24,0.00,,,0.00,983,LWC V2.00 B727,2013-04-07 19:29:00,
2013-04-07 13:34:00,61.9,26.6,29.92,WSW,238,7.0,8.0,26,0.00,,,0.00,991,LWC V2.00 B727,2013-04-07 19:34:00,
2013-04-07 13:39:00,62.2,26.9,29.92,North,9,3.0,6.0,26,0.00,,,0.00,1020,LWC V2.00 B727,2013-04-07 19:39:00,
2013-04-07 13:44:00,63.3,25.9,29.92,SSW,211,6.0,11.0,24,0.00,,,0.00,1007,LWC V2.00 B727,2013-04-07 19:44:00,
2013-04-07 13:49:00,63.4,27.0,29.92,WNW,303,10.0,10.0,25,0.00,,,0.00,1000,LWC V2.00 B727,2013-04-07 19:49:00,
2013-04-07 13:54:00,63.3,25.9,29.91,WSW,238,3.0,8.0,24,0.00,,,0.00,991,LWC V2.00 B727,2013-04-07 19:54:00,
2013-04-07 13:59:00,63.8,27.3,29.92,WSW,249,5.0,11.0,25,0.00,,,0.00,986,LWC V2.00 B727,2013-04-07 19:59:00,
2013-04-07 14:04:00,63.4,25.0,29.91,SW,223,4.0,17.0,23,0.00,,,0.00,974,LWC V2.00 B727,2013-04-07 20:04:00,
2013-04-07 14:09:00,63.4,26.0,29.91,SSW,213,3.0,14.0,24,0.00,,,0.00,970,LWC V2.00 B727,2013-04-07 20:09:00,
2013-04-07 14:14:00,63.4,25.0,29.91,NNE,21,5.0,14.0,23,0.00,,,0.00,969,LWC V2.00 B727,2013-04-07 20:14:00,
2013-04-07 14:19:00,62.7,24.4,29.90,WSW,247,12.0,22.0,23,0.00,,,0.00,970,LWC V2.00 B727,2013-04-07 20:19:00,
2013-04-07 14:24:00,63.2,24.8,29.90,West,263,4.0,13.0,23,0.00,,,0.00,979,LWC V2.00 B727,2013-04-07 20:24:00,
2013-04-07 14:29:00,62.5,25.2,29.90,SW,223,7.0,11.0,24,0.00,,,0.00,1000,LWC V2.00 B727,2013-04-07 20:29:00,
2013-04-07 14:34:00,62.5,23.1,29.90,NNE,26,10.0,15.0,22,0.00,,,0.00,970,LWC V2.00 B727,2013-04-07 20:34:00,
2013-04-07 14:39:00,62.6,24.3,29.90,SSW,211,4.0,15.0,23,0.00,,,0.00,932,LWC V2.00 B727,2013-04-07 20:39:00,
2013-04-07 14:44:00,63.0,24.6,29.90,SW,215,4.0,15.0,23,0.00,,,0.00,868,LWC V2.00 B727,2013-04-07 20:44:00,
2013-04-07 14:49:00,63.4,26.0,29.90,WSW,254,9.0,10.0,24,0.00,,,0.00,900,LWC V2.00 B727,2013-04-07 20:49:00,
2013-04-07 14:54:00,63.7,25.2,29.89,SW,232,0.0,11.0,23,0.00,,,0.00,895,LWC V2.00 B727,2013-04-07 20:54:00,
2013-04-07 14:59:00,64.0,24.4,29.90,SW,225,8.0,12.0,22,0.00,,,0.00,872,LWC V2.00 B727,2013-04-07 20:59:00,
2013-04-07 15:04:00,64.3,27.7,29.89,SW,222,3.0,12.0,25,0.00,,,0.00,858,LWC V2.00 B727,2013-04-07 21:04:00,
2013-04-07 15:09:00,64.8,26.1,29.89,WSW,249,10.0,11.0,23,0.00,,,0.00,865,LWC V2.00 B727,2013-04-07 21:09:00,
2013-04-07 15:14:00,64.3,25.7,29.89,WSW,252,10.0,15.0,23,0.00,,,0.00,847,LWC V2.00 B727,2013-04-07 21:14:00,
2013-04-07 15:19:00,64.1,25.5,29.89,ENE,76,3.0,7.0,23,0.00,,,0.00,879,LWC V2.00 B727,2013-04-07 21:19:00,
2013-04-07 15:24:00,64.4,25.8,29.88,WSW,244,8.0,11.0,23,0.00,,,0.00,761,LWC V2.00 B727,2013-04-07 21:24:00,
2013-04-07 15:29:00,64.1,25.5,29.88,SW,214,3.0,10.0,23,0.00,,,0.00,828,LWC V2.00 B727,2013-04-07 21:29:00,
2013-04-07 15:34:00,64.5,25.9,29.88,North,355,2.0,8.0,23,0.00,,,0.00,707,LWC V2.00 B727,2013-04-07 21:34:00,
2013-04-07 15:39:00,63.9,24.3,29.88,SW,228,4.0,13.0,22,0.00,,,0.00,728,LWC V2.00 B727,2013-04-07 21:39:00,
2013-04-07 15:44:00,63.3,24.9,29.88,SW,215,12.0,17.0,23,0.00,,,0.00,772,LWC V2.00 B727,2013-04-07 21:44:00,
2013-04-07 15:49:00,62.7,24.4,29.87,WSW,242,8.0,14.0,23,0.00,,,0.00,729,LWC V2.00 B727,2013-04-07 21:49:00,
2013-04-07 15:54:00,62.8,24.5,29.87,SW,225,10.0,11.0,23,0.00,,,0.00,694,LWC V2.00 B727,2013-04-07 21:54:00,
2013-04-07 15:59:00,63.1,24.7,29.87,WSW,252,12.0,12.0,23,0.00,,,0.00,664,LWC V2.00 B727,2013-04-07 21:59:00,
2013-04-07 16:04:00,63.1,23.6,29.88,SW,221,6.0,13.0,22,0.00,,,0.00,671,LWC V2.00 B727,2013-04-07 22:04:00,
2013-04-07 16:09:00,62.9,24.5,29.87,NNE,18,13.0,20.0,23,0.00,,,0.00,661,LWC V2.00 B727,2013-04-07 22:09:00,
2013-04-07 16:14:00,62.8,24.5,29.87,NW,323,6.0,12.0,23,0.00,,,0.00,684,LWC V2.00 B727,2013-04-07 22:14:00,
2013-04-07 16:19:00,62.8,24.5,29.87,West,263,4.0,9.0,23,0.00,,,0.00,668,LWC V2.00 B727,2013-04-07 22:19:00,
2013-04-07 16:24:00,62.5,24.2,29.87,SW,221,5.0,10.0,23,0.00,,,0.00,130,LWC V2.00 B727,2013-04-07 22:24:00,
2013-04-07 16:29:00,62.5,23.1,29.87,North,0,6.0,14.0,22,0.00,,,0.00,671,LWC V2.00 B727,2013-04-07 22:29:00,
2013-04-07 16:34:00,62.2,24.0,29.88,SW,234,3.0,15.0,23,0.00,,,0.00,615,LWC V2.00 B727,2013-04-07 22:34:00,
2013-04-07 16:39:00,62.5,24.2,29.87,SSW,211,2.0,11.0,23,0.00,,,0.00,601,LWC V2.00 B727,2013-04-07 22:39:00,
2013-04-07 16:44:00,62.3,21.9,29.87,NNW,332,8.0,11.0,21,0.00,,,0.00,239,LWC V2.00 B727,2013-04-07 22:44:00,
2013-04-07 16:49:00,61.2,23.1,29.87,North,5,1.0,7.0,23,0.00,,,0.00,267,LWC V2.00 B727,2013-04-07 22:49:00,
2013-04-07 16:54:00,60.8,22.8,29.87,NW,325,3.0,8.0,23,0.00,,,0.00,580,LWC V2.00 B727,2013-04-07 22:54:00,
2013-04-07 16:59:00,61.2,23.1,29.87,West,263,5.0,11.0,23,0.00,,,0.00,494,LWC V2.00 B727,2013-04-07 22:59:00,
2013-04-07 17:04:00,61.7,23.5,29.87,SE,125,2.0,9.0,23,0.00,,,0.00,504,LWC V2.00 B727,2013-04-07 23:04:00,
2013-04-07 17:09:00,61.6,22.4,29.87,North,355,2.0,14.0,22,0.00,,,0.00,418,LWC V2.00 B727,2013-04-07 23:09:00,
2013-04-07 17:14:00,61.6,22.4,29.87,WSW,246,2.0,10.0,22,0.00,,,0.00,476,LWC V2.00 B727,2013-04-07 23:14:00,
2013-04-07 17:19:00,61.7,23.5,29.87,WSW,256,3.0,12.0,23,0.00,,,0.00,332,LWC V2.00 B727,2013-04-07 23:19:00,
2013-04-07 17:24:00,61.3,22.1,29.87,NNE,19,5.0,12.0,22,0.00,,,0.00,262,LWC V2.00 B727,2013-04-07 23:24:00,
2013-04-07 17:29:00,60.8,22.8,29.87,ENE,76,2.0,8.0,23,0.00,,,0.00,450,LWC V2.00 B727,2013-04-07 23:29:00,
2013-04-07 17:34:00,60.5,22.5,29.86,NE,49,3.0,15.0,23,0.00,,,0.00,401,LWC V2.00 B727,2013-04-07 23:34:00,
2013-04-07 17:39:00,60.2,22.3,29.87,WSW,246,9.0,10.0,23,0.00,,,0.00,366,LWC V2.00 B727,2013-04-07 23:39:00,
2013-04-07 17:44:00,60.1,22.2,29.86,North,0,5.0,11.0,23,0.00,,,0.00,304,LWC V2.00 B727,2013-04-07 23:44:00,
2013-04-07 17:49:00,60.0,24.1,29.87,NNW,348,6.0,9.0,25,0.00,,,0.00,265,LWC V2.00 B727,2013-04-07 23:49:00,
2013-04-07 17:54:00,59.8,22.9,29.87,SW,215,7.0,9.0,24,0.00,,,0.00,264,LWC V2.00 B727,2013-04-07 23:54:00,
2013-04-07 17:59:00,59.9,24.0,29.87,SW,216,7.0,10.0,25,0.00,,,0.00,288,LWC V2.00 B727,2013-04-07 23:59:00,
2013-04-07 18:04:00,60.0,23.1,29.87,North,11,6.0,7.0,24,0.00,,,0.00,265,LWC V2.00 B727,2013-04-08 00:04:00,
2013-04-07 18:09:00,59.8,22.9,29.87,North,351,5.0,13.0,24,0.00,,,0.00,207,LWC V2.00 B727,2013-04-08 00:09:00,
2013-04-07 18:14:00,59.6,23.7,29.87,North,10,9.0,9.0,25,0.00,,,0.00,218,LWC V2.00 B727,2013-04-08 00:14:00,
2013-04-07 18:19:00,59.1,23.3,29.88,West,273,1.0,6.0,25,0.00,,,0.00,193,LWC V2.00 B727,2013-04-08 00:19:00,
2013-04-07 18:24:00,59.0,22.3,29.87,NNW,329,3.0,7.0,24,0.00,,,0.00,158,LWC V2.00 B727,2013-04-08 00:24:00,
2013-04-07 18:29:00,58.7,22.0,29.87,SW,236,8.0,12.0,24,0.00,,,0.00,142,LWC V2.00 B727,2013-04-08 00:29:00,
2013-04-07 18:34:00,58.4,21.8,29.87,SSW,202,0.0,8.0,24,0.00,,,0.00,125,LWC V2.00 B727,2013-04-08 00:34:00,
2013-04-07 18:39:00,58.1,21.5,29.87,South,184,4.0,10.0,24,0.00,,,0.00,65,LWC V2.00 B727,2013-04-08 00:39:00,
2013-04-07 18:44:00,57.7,21.2,29.87,North,0,8.0,8.0,24,0.00,,,0.00,51,LWC V2.00 B727,2013-04-08 00:44:00,
2013-04-07 18:49:00,57.1,20.7,29.88,North,0,4.0,8.0,24,0.00,,,0.00,40,LWC V2.00 B727,2013-04-08 00:49:00,
2013-04-07 18:54:00,56.5,21.1,29.88,NNE,22,1.0,6.0,25,0.00,,,0.00,35,LWC V2.00 B727,2013-04-08 00:54:00,
2013-04-07 18:59:00,56.0,20.7,29.89,WSW,242,0.0,5.0,25,0.00,,,0.00,37,LWC V2.00 B727,2013-04-08 00:59:00,
2013-04-07 19:04:00,55.6,20.3,29.89,North,350,6.0,7.0,25,0.00,,,0.00,28,LWC V2.00 B727,2013-04-08 01:04:00,
2013-04-07 19:09:00,55.2,20.9,29.89,NNW,344,5.0,7.0,26,0.00,,,0.00,19,LWC V2.00 B727,2013-04-08 01:09:00,
2013-04-07 19:14:00,54.9,19.8,29.89,SW,221,4.0,9.0,25,0.00,,,0.00,14,LWC V2.00 B727,2013-04-08 01:14:00,
2013-04-07 19:19:00,54.7,19.6,29.90,NNW,333,9.0,11.0,25,0.00,,,0.00,11,LWC V2.00 B727,2013-04-08 01:19:00,
2013-04-07 19:24:00,54.5,20.3,29.90,WSW,237,2.0,7.0,26,0.00,,,0.00,5,LWC V2.00 B727,2013-04-08 01:24:00,
2013-04-07 19:29:00,54.3,20.2,29.90,NW,311,0.0,3.0,26,0.00,,,0.00,0,LWC V2.00 B727,2013-04-08 01:29:00,
2013-04-07 19:34:00,54.0,19.9,29.91,SSW,210,2.0,6.0,26,0.00,,,0.00,0,LWC V2.00 B727,2013-04-08 01:34:00,
2013-04-07 19:39:00,53.7,19.6,29.91,WNW,287,0.0,3.0,26,0.00,,,0.00,0,LWC V2.00 B727,2013-04-08 01:39:00,
2013-04-07 19:44:00,53.5,20.4,29.91,SW,224,4.0,6.0,27,0.00,,,0.00,0,LWC V2.00 B727,2013-04-08 01:44:00,
2013-04-07 19:49:00,53.2,19.2,29.91,SSW,210,1.0,2.0,26,0.00,,,0.00,0,LWC V2.00 B727,2013-04-08 01:49:00,
2013-04-07 19:54:00,52.9,19.8,29.91,SW,222,6.0,6.0,27,0.00,,,0.00,0,LWC V2.00 B727,2013-04-08 01:54:00,
2013-04-07 19:59:00,52.7,19.7,29.92,WSW,244,5.0,7.0,27,0.00,,,0.00,0,LWC V2.00 B727,2013-04-08 01:59:00,
2013-04-07 20:04:00,52.6,19.6,29.92,SW,228,3.0,3.0,27,0.00,,,0.00,0,LWC V2.00 B727,2013-04-08 02:04:00,
2013-04-07 20:09:00,52.4,19.4,29.92,SW,227,0.0,3.0,27,0.00,,,0.00,0,LWC V2.00 B727,2013-04-08 02:09:00,
2013-04-07 20:14:00,52.2,19.2,29.92,SW,227,0.0,0.0,27,0.00,,,0.00,0,LWC V2.00 B727,2013-04-08 02:14:00,
2013-04-07 20:19:00,51.9,19.8,29.92,SW,227,0.0,1.0,28,0.00,,,0.00,0,LWC V2.00 B727,2013-04-08 02:19:00,
2013-04-07 20:24:00,51.6,18.7,29.93,SW,227,0.0,1.0,27,0.00,,,0.00,0,LWC V2.00 B727,2013-04-08 02:24:00,
2013-04-07 20:29:00,51.3,19.3,29.93,SW,227,1.0,3.0,28,0.00,,,0.00,0,LWC V2.00 B727,2013-04-08 02:29:00,
2013-04-07 20:34:00,51.0,19.1,29.92,SW,227,0.0,1.0,28,0.00,,,0.00,0,LWC V2.00 B727,2013-04-08 02:34:00,
2013-04-07 20:40:00,50.8,19.7,29.93,SW,227,0.0,0.0,29,0.00,,,0.00,0,LWC V2.00 B727,2013-04-08 02:40:00,
2013-04-07 20:45:00,50.4,19.4,29.93,SW,227,0.0,1.0,29,0.00,,,0.00,0,LWC V2.00 B727,2013-04-08 02:45:00,
2013-04-07 20:50:00,49.8,19.6,29.93,SW,227,2.0,3.0,30,0.00,,,0.00,0,LWC V2.00 B727,2013-04-08 02:50:00,
2013-04-07 20:55:00,49.3,19.2,29.93,SW,227,1.0,2.0,30,0.00,,,0.00,0,LWC V2.00 B727,2013-04-08 02:55:00,
2013-04-07 21:00:00,48.9,20.4,29.93,SW,217,1.0,2.0,32,0.00,,,0.00,0,LWC V2.00 B727,2013-04-08 03:00:00,
2013-04-07 21:05:00,48.4,20.6,29.93,SW,217,0.0,1.0,33,0.00,,,0.00,0,LWC V2.00 B727,2013-04-08 03:05:00,
2013-04-07 21:10:00,47.8,20.8,29.93,SW,217,1.0,1.0,34,0.00,,,0.00,0,LWC V2.00 B727,2013-04-08 03:10:00,
2013-04-07 21:15:00,47.3,20.4,29.93,SW,217,0.0,0.0,34,0.00,,,0.00,0,LWC V2.00 B727,2013-04-08 03:15:00,
2013-04-07 21:20:00,46.8,20.6,29.93,SW,217,0.0,0.0,35,0.00,,,0.00,0,LWC V2.00 B727,2013-04-08 03:20:00,
2013-04-07 21:25:00,46.4,20.3,29.93,SW,217,0.0,1.0,35,0.00,,,0.00,0,LWC V2.00 B727,2013-04-08 03:25:00,
2013-04-07 21:30:00,45.9,20.5,29.93,SW,217,0.0,0.0,36,0.00,,,0.00,0,LWC V2.00 B727,2013-04-08 03:30:00,
2013-04-07 21:35:00,45.4,20.7,29.93,SW,217,0.0,0.0,37,0.00,,,0.00,0,LWC V2.00 B727,2013-04-08 03:35:00,
2013-04-07 21:40:00,44.8,20.8,29.93,SW,217,0.0,3.0,38,0.00,,,0.00,0,LWC V2.00 B727,2013-04-08 03:40:00,
2013-04-07 21:45:00,44.0,21.2,29.93,SW,217,2.0,2.0,40,0.00,,,0.00,0,LWC V2.00 B727,2013-04-08 03:45:00,
2013-04-07 21:50:00,43.2,21.1,29.93,SW,217,0.0,1.0,41,0.00,,,0.00,0,LWC V2.00 B727,2013-04-08 03:50:00,
2013-04-07 21:55:00,42.9,20.8,29.93,SW,217,0.0,1.0,41,0.00,,,0.00,0,LWC V2.00 B727,2013-04-08 03:55:00,
2013-04-07 22:00:00,42.7,20.7,29.93,SSE,158,1.0,3.0,41,0.00,,,0.00,0,LWC V2.00 B727,2013-04-08 04:00:00,
2013-04-07 22:01:00,42.6,21.1,29.93,SSE,158,0.0,1.0,42,0.00,,,0.00,0,LWC V2.00 B727,2013-04-08 04:01:00,
2013-04-07 22:06:00,42.5,21.0,29.93,SSE,158,0.0,0.0,42,0.00,,,0.00,0,LWC V2.00 B727,2013-04-08 04:06:00,
2013-04-07 22:09:00,42.4,21.0,29.93,SSE,158,0.0,0.0,42,0.00,,,0.00,0,LWC V2.00 B727,2013-04-08 04:09:00,
2013-04-07 22:14:00,42.2,20.8,29.92,SSE,158,2.0,2.0,42,0.00,,,0.00,0,LWC V2.00 B727,2013-04-08 04:14:00,
2013-04-07 22:19:00,42.0,20.6,29.92,SSE,158,0.0,0.0,42,0.00,,,0.00,0,LWC V2.00 B727,2013-04-08 04:19:00,
2013-04-07 22:24:00,41.8,21.0,29.92,SSE,157,0.0,0.0,43,0.00,,,0.00,0,LWC V2.00 B727,2013-04-08 04:24:00,
2013-04-07 22:29:00,41.6,20.8,29.92,SSE,158,2.0,3.0,43,0.00,,,0.00,0,LWC V2.00 B727,2013-04-08 04:29:00,
2013-04-07 22:34:00,41.3,20.5,29.92,SSE,158,1.0,2.0,43,0.00,,,0.00,0,LWC V2.00 B727,2013-04-08 04:34:00,
2013-04-07 22:39:00,41.3,20.0,29.92,SSE,159,1.0,2.0,42,0.00,,,0.00,0,LWC V2.00 B727,2013-04-08 04:39:00,
2013-04-07 22:44:00,41.4,20.0,29.91,SSE,159,0.0,3.0,42,0.00,,,0.00,0,LWC V2.00 B727,2013-04-08 04:44:00,
2013-04-07 22:49:00,41.5,20.7,29.91,SSE,159,0.0,2.0,43,0.00,,,0.00,0,LWC V2.00 B727,2013-04-08 04:49:00,
2013-04-07 22:54:00,41.4,20.6,29.91,SSE,159,0.0,0.0,43,0.00,,,0.00,0,LWC V2.00 B727,2013-04-08 04:54:00,
2013-04-07 22:59:00,41.4,20.0,29.91,SSE,157,1.0,2.0,42,0.00,,,0.00,0,LWC V2.00 B727,2013-04-08 04:59:00,
2013-04-07 23:04:00,41.5,20.7,29.91,SSE,158,2.0,3.0,43,0.00,,,0.00,0,LWC V2.00 B727,2013-04-08 05:04:00,
2013-04-07 23:09:00,41.5,20.7,29.91,SSE,159,2.0,2.0,43,0.00,,,0.00,0,LWC V2.00 B727,2013-04-08 05:09:00,
2013-04-07 23:14:00,41.4,20.6,29.90,SSE,159,0.0,2.0,43,0.00,,,0.00,0,LWC V2.00 B727,2013-04-08 05:14:00,
2013-04-07 23:19:00,41.3,20.5,29.90,SSE,159,1.0,2.0,43,0.00,,,0.00,0,LWC V2.00 B727,2013-04-08 05:19:00,
2013-04-07 23:24:00,41.2,20.4,29.90,SSE,159,0.0,1.0,43,0.00,,,0.00,0,LWC V2.00 B727,2013-04-08 05:24:00,
2013-04-07 23:29:00,41.1,20.3,29.90,SSE,159,0.0,0.0,43,0.00,,,0.00,0,LWC V2.00 B727,2013-04-08 05:29:00,
2013-04-07 23:34:00,40.9,20.1,29.90,SSE,159,0.0,1.0,43,0.00,,,0.00,0,LWC V2.00 B727,2013-04-08 05:34:00,
2013-04-07 23:39:00,40.6,20.4,29.90,SSE,159,0.0,0.0,44,0.00,,,0.00,0,LWC V2.00 B727,2013-04-08 05:39:00,
2013-04-07 23:44:00,40.4,20.2,29.90,SSE,159,0.0,0.0,44,0.00,,,0.00,0,LWC V2.00 B727,2013-04-08 05:44:00,
2013-04-07 23:49:00,40.0,19.9,29.90,SSE,159,0.0,1.0,44,0.00,,,0.00,0,LWC V2.00 B727,2013-04-08 05:49:00,
2013-04-07 23:54:00,39.8,19.7,29.90,SSE,159,0.0,1.0,44,0.00,,,0.00,0,LWC V2.00 B727,2013-04-08 05:54:00,
2013-04-07 23:59:00,39.7,19.6,29.90,SSE,159,2.0,2.0,44,0.00,,,0.00,0,LWC V2.00 B727,2013-04-08 05:59:00,